Wetterdaten: Sonntag, 14.11.2010
Datum Zeit Temp. A. Feuchte A. Luftdruck Regen Wind Richtung Richtung Sonnenschein UV Solar Windben
14.11.2010 00:00 10,5 C 94 % 996,5 hPa 0,0 mm 0,0 km/h (0 Bft) S 180 0 min 0 UV-I 0 W/m 6,4 km/h (2 Bft)
14.11.2010 00:10 10,5 C 94 % 996,7 hPa 0,0 mm 0,0 km/h (0 Bft) S-SO 157 0 min 0 UV-I 0 W/m 4,8 km/h (1 Bft)
14.11.2010 00:20 10,6 C 94 % 996,9 hPa 0,0 mm 0,0 km/h (0 Bft) S-SO 157 0 min 0 UV-I 0 W/m 4,8 km/h (1 Bft)
14.11.2010 00:30 10,6 C 94 % 996,9 hPa 0,0 mm 0,0 km/h (0 Bft) S-SO 157 0 min 0 UV-I 0 W/m 3,2 km/h (1 Bft)
14.11.2010 00:40 10,5 C 94 % 996,8 hPa 0,3 mm 0,0 km/h (0 Bft) S-SO 157 0 min 0 UV-I 0 W/m 3,2 km/h (1 Bft)
14.11.2010 00:50 10,5 C 94 % 996,7 hPa 0,3 mm 0,0 km/h (0 Bft) S-SO 157 0 min 0 UV-I 0 W/m 3,2 km/h (1 Bft)
14.11.2010 01:00 10,5 C 94 % 996,9 hPa 0,0 mm 0,0 km/h (0 Bft) S-SO 157 0 min 0 UV-I 0 W/m 1,6 km/h (1 Bft)
14.11.2010 01:10 10,5 C 94 % 996,8 hPa 0,3 mm 0,0 km/h (0 Bft) S-SO 157 0 min 0 UV-I 0 W/m 1,6 km/h (1 Bft)
14.11.2010 01:20 10,5 C 94 % 997,0 hPa 0,3 mm 0,0 km/h (0 Bft) N 0 0 min 0 UV-I 0 W/m 0,0 km/h (0 Bft)
14.11.2010 01:30 10,5 C 94 % 996,9 hPa 0,3 mm 0,0 km/h (0 Bft) S-SO 157 0 min 0 UV-I 0 W/m 1,6 km/h (1 Bft)
14.11.2010 01:40 10,5 C 94 % 996,7 hPa 0,0 mm 0,0 km/h (0 Bft) S-SO 157 0 min 0 UV-I 0 W/m 1,6 km/h (1 Bft)
14.11.2010 01:50 10,5 C 94 % 996,6 hPa 0,3 mm 0,0 km/h (0 Bft) S-SO 157 0 min 0 UV-I 0 W/m 1,6 km/h (1 Bft)
14.11.2010 02:00 10,5 C 94 % 996,6 hPa 0,0 mm 0,0 km/h (0 Bft) S-SO 157 0 min 0 UV-I 0 W/m 3,2 km/h (1 Bft)
14.11.2010 02:10 10,6 C 94 % 996,6 hPa 0,0 mm 0,0 km/h (0 Bft) S-SO 157 0 min 0 UV-I 0 W/m 4,8 km/h (1 Bft)
14.11.2010 02:20 10,6 C 94 % 996,6 hPa 0,0 mm 1,6 km/h (1 Bft) SO 135 0 min 0 UV-I 0 W/m 6,4 km/h (2 Bft)
14.11.2010 02:30 10,6 C 94 % 996,7 hPa 0,0 mm 0,0 km/h (0 Bft) SO 135 0 min 0 UV-I 0 W/m 3,2 km/h (1 Bft)
14.11.2010 02:40 10,6 C 94 % 996,7 hPa 0,0 mm 0,0 km/h (0 Bft) SO 135 0 min 0 UV-I 0 W/m 1,6 km/h (1 Bft)
14.11.2010 02:50 10,6 C 94 % 996,7 hPa 0,3 mm 0,0 km/h (0 Bft) N 0 0 min 0 UV-I 0 W/m 0,0 km/h (0 Bft)
14.11.2010 03:00 10,6 C 94 % 996,6 hPa 0,0 mm 0,0 km/h (0 Bft) N 0 0 min 0 UV-I 0 W/m 0,0 km/h (0 Bft)
14.11.2010 03:10 10,6 C 94 % 996,5 hPa 0,0 mm 0,0 km/h (0 Bft) N 0 0 min 0 UV-I 0 W/m 0,0 km/h (0 Bft)
14.11.2010 03:20 10,5 C 94 % 996,3 hPa 0,0 mm 0,0 km/h (0 Bft) SO 135 0 min 0 UV-I 0 W/m 3,2 km/h (1 Bft)
14.11.2010 03:30 10,5 C 94 % 996,4 hPa 0,0 mm 0,0 km/h (0 Bft) SO 135 0 min 0 UV-I 0 W/m 4,8 km/h (1 Bft)
14.11.2010 03:40 10,6 C 94 % 996,4 hPa 0,0 mm 0,0 km/h (0 Bft) SO 135 0 min 0 UV-I 0 W/m 3,2 km/h (1 Bft)
14.11.2010 03:50 10,7 C 94 % 996,3 hPa 0,0 mm 0,0 km/h (0 Bft) SO 135 0 min 0 UV-I 0 W/m 3,2 km/h (1 Bft)
14.11.2010 04:00 10,8 C 94 % 996,3 hPa 0,0 mm 0,0 km/h (0 Bft) SO 135 0 min 0 UV-I 0 W/m 3,2 km/h (1 Bft)
14.11.2010 04:10 10,9 C 95 % 996,3 hPa 0,0 mm 0,0 km/h (0 Bft) SO 135 0 min 0 UV-I 0 W/m 4,8 km/h (1 Bft)
14.11.2010 04:20 11,1 C 95 % 996,4 hPa 0,0 mm 0,0 km/h (0 Bft) S-SO 157 0 min 0 UV-I 0 W/m 6,4 km/h (2 Bft)
14.11.2010 04:30 11,3 C 95 % 996,3 hPa 0,3 mm 0,0 km/h (0 Bft) W-SW 247 0 min 0 UV-I 0 W/m 4,8 km/h (1 Bft)
14.11.2010 04:40 11,5 C 95 % 996,3 hPa 0,0 mm 0,0 km/h (0 Bft) W-SW 247 0 min 0 UV-I 0 W/m 3,2 km/h (1 Bft)
14.11.2010 04:50 11,7 C 95 % 996,2 hPa 0,0 mm 0,0 km/h (0 Bft) W-SW 247 0 min 0 UV-I 0 W/m 4,8 km/h (1 Bft)
14.11.2010 05:00 11,8 C 95 % 996,2 hPa 0,0 mm 0,0 km/h (0 Bft) S 180 0 min 0 UV-I 0 W/m 8,0 km/h (2 Bft)
14.11.2010 05:10 11,9 C 95 % 995,9 hPa 0,0 mm 0,0 km/h (0 Bft) S 180 0 min 0 UV-I 0 W/m 4,8 km/h (1 Bft)
14.11.2010 05:20 12,0 C 95 % 995,9 hPa 0,0 mm 0,0 km/h (0 Bft) S 180 0 min 0 UV-I 0 W/m 4,8 km/h (1 Bft)
14.11.2010 05:30 12,1 C 95 % 995,8 hPa 0,0 mm 1,6 km/h (1 Bft) S 180 0 min 0 UV-I 0 W/m 9,7 km/h (2 Bft)
14.11.2010 05:40 12,2 C 95 % 995,7 hPa 0,0 mm 1,6 km/h (1 Bft) S-SW 202 0 min 0 UV-I 0 W/m 9,7 km/h (2 Bft)
14.11.2010 05:50 12,2 C 95 % 995,7 hPa 0,0 mm 3,2 km/h (1 Bft) S 180 0 min 0 UV-I 0 W/m 11,3 km/h (2 Bft)
14.11.2010 06:00 12,3 C 95 % 995,8 hPa 0,0 mm 3,2 km/h (1 Bft) S-SW 202 0 min 0 UV-I 0 W/m 11,3 km/h (2 Bft)
14.11.2010 06:10 12,4 C 95 % 995,7 hPa 0,0 mm 3,2 km/h (1 Bft) S-SW 202 0 min 0 UV-I 0 W/m 16,1 km/h (3 Bft)
14.11.2010 06:20 12,4 C 95 % 995,5 hPa 0,0 mm 1,6 km/h (1 Bft) S-SW 202 0 min 0 UV-I 0 W/m 11,3 km/h (2 Bft)
14.11.2010 06:30 12,5 C 95 % 995,6 hPa 0,0 mm 3,2 km/h (1 Bft) SW 225 0 min 0 UV-I 0 W/m 12,9 km/h (3 Bft)
14.11.2010 06:40 12,5 C 95 % 995,5 hPa 0,0 mm 3,2 km/h (1 Bft) SW 225 0 min 0 UV-I 0 W/m 17,7 km/h (3 Bft)
14.11.2010 06:50 12,6 C 95 % 995,5 hPa 0,0 mm 3,2 km/h (1 Bft) S-SW 202 0 min 0 UV-I 0 W/m 14,5 km/h (3 Bft)
14.11.2010 07:00 12,7 C 94 % 995,4 hPa 0,0 mm 1,6 km/h (1 Bft) S-SW 202 0 min 0 UV-I 0 W/m 11,3 km/h (2 Bft)
14.11.2010 07:10 12,7 C 94 % 995,3 hPa 0,0 mm 1,6 km/h (1 Bft) S-SW 202 0 min 0 UV-I 0 W/m 8,0 km/h (2 Bft)
14.11.2010 07:20 12,7 C 94 % 995,2 hPa 0,0 mm 1,6 km/h (1 Bft) S-SW 202 0 min 0 UV-I 0 W/m 9,7 km/h (2 Bft)
14.11.2010 07:30 12,7 C 94 % 995,3 hPa 0,0 mm 1,6 km/h (1 Bft) S-SW 202 0 min 0 UV-I 0 W/m 9,7 km/h (2 Bft)
14.11.2010 07:40 12,8 C 94 % 995,4 hPa 0,0 mm 1,6 km/h (1 Bft) S-SW 202 0 min 0 UV-I 0 W/m 12,9 km/h (3 Bft)
14.11.2010 07:50 12,8 C 94 % 995,6 hPa 0,0 mm 3,2 km/h (1 Bft) S-SW 202 0 min 0 UV-I 0 W/m 11,3 km/h (2 Bft)
14.11.2010 08:00 12,8 C 94 % 995,7 hPa 0,0 mm 3,2 km/h (1 Bft) SW 225 0 min 0 UV-I 0 W/m 14,5 km/h (3 Bft)
14.11.2010 08:10 12,8 C 94 % 995,7 hPa 0,0 mm 4,8 km/h (1 Bft) S-SW 202 0 min 0 UV-I 0 W/m 20,9 km/h (4 Bft)
14.11.2010 08:20 12,9 C 94 % 995,8 hPa 0,0 mm 4,8 km/h (1 Bft) S-SW 202 0 min 0 UV-I 0 W/m 11,3 km/h (2 Bft)
14.11.2010 08:30 13,1 C 93 % 995,8 hPa 0,0 mm 3,2 km/h (1 Bft) SW 225 0 min 0 UV-I 0 W/m 16,1 km/h (3 Bft)
14.11.2010 08:40 13,2 C 93 % 996,0 hPa 0,0 mm 4,8 km/h (1 Bft) S-SW 202 0 min 0 UV-I 0 W/m 12,9 km/h (3 Bft)
14.11.2010 08:50 13,3 C 92 % 995,8 hPa 0,0 mm 4,8 km/h (1 Bft) S-SW 202 0 min 0 UV-I 12 W/m 17,7 km/h (3 Bft)
14.11.2010 09:00 13,4 C 91 % 995,8 hPa 0,0 mm 6,4 km/h (2 Bft) SW 225 0 min 0 UV-I 11 W/m 27,4 km/h (4 Bft)
14.11.2010 09:10 13,6 C 90 % 995,9 hPa 0,0 mm 3,2 km/h (1 Bft) SW 225 0 min 0 UV-I 14 W/m 16,1 km/h (3 Bft)
14.11.2010 09:20 13,7 C 89 % 995,9 hPa 0,0 mm 3,2 km/h (1 Bft) SW 225 0 min 0 UV-I 18 W/m 9,7 km/h (2 Bft)
14.11.2010 09:30 13,8 C 88 % 995,8 hPa 0,0 mm 1,6 km/h (1 Bft) S 180 0 min 0 UV-I 42 W/m 9,7 km/h (2 Bft)
14.11.2010 09:40 13,9 C 87 % 995,9 hPa 0,0 mm 3,2 km/h (1 Bft) S-SW 202 0 min 0 UV-I 54 W/m 11,3 km/h (2 Bft)
14.11.2010 09:50 14,0 C 86 % 995,8 hPa 0,0 mm 1,6 km/h (1 Bft) S 180 0 min 0 UV-I 37 W/m 11,3 km/h (2 Bft)
14.11.2010 10:00 14,1 C 85 % 995,8 hPa 0,0 mm 3,2 km/h (1 Bft) S-SW 202 0 min 0 UV-I 26 W/m 16,1 km/h (3 Bft)
14.11.2010 10:10 14,2 C 84 % 995,7 hPa 0,0 mm 3,2 km/h (1 Bft) S-SO 157 0 min 0 UV-I 33 W/m 16,1 km/h (3 Bft)
14.11.2010 10:20 14,3 C 83 % 995,7 hPa 0,0 mm 3,2 km/h (1 Bft) S-SW 202 0 min 0 UV-I 39 W/m 17,7 km/h (3 Bft)
14.11.2010 10:30 14,4 C 82 % 995,9 hPa 0,0 mm 3,2 km/h (1 Bft) S-SW 202 0 min 0 UV-I 53 W/m 16,1 km/h (3 Bft)
14.11.2010 10:40 14,5 C 81 % 995,9 hPa 0,0 mm 4,8 km/h (1 Bft) S-SW 202 0 min 0 UV-I 53 W/m 14,5 km/h (3 Bft)
14.11.2010 10:50 14,6 C 80 % 995,9 hPa 0,0 mm 4,8 km/h (1 Bft) S-SW 202 0 min 1 UV-I 77 W/m 19,3 km/h (3 Bft)
14.11.2010 11:00 14,8 C 79 % 995,6 hPa 0,0 mm 4,8 km/h (1 Bft) S-SW 202 0 min 1 UV-I 113 W/m 14,5 km/h (3 Bft)
14.11.2010 11:10 15,0 C 78 % 995,8 hPa 0,0 mm 4,8 km/h (1 Bft) S-SW 202 0 min 1 UV-I 109 W/m 16,1 km/h (3 Bft)
14.11.2010 11:20 15,1 C 77 % 995,7 hPa 0,0 mm 6,4 km/h (2 Bft) S-SW 202 0 min 1 UV-I 83 W/m 20,9 km/h (4 Bft)
14.11.2010 11:30 15,2 C 76 % 995,7 hPa 0,0 mm 6,4 km/h (2 Bft) S-SW 202 0 min 1 UV-I 121 W/m 20,9 km/h (4 Bft)
14.11.2010 11:40 15,3 C 75 % 995,8 hPa 0,0 mm 6,4 km/h (2 Bft) S-SW 202 0 min 1 UV-I 139 W/m 25,7 km/h (4 Bft)
14.11.2010 11:50 15,5 C 74 % 995,8 hPa 0,0 mm 6,4 km/h (2 Bft) SW 225 0 min 1 UV-I 183 W/m 27,4 km/h (4 Bft)
14.11.2010 12:00 15,7 C 73 % 995,6 hPa 0,0 mm 8,0 km/h (2 Bft) SW 225 0 min 1 UV-I 188 W/m 29,0 km/h (5 Bft)
14.11.2010 12:10 15,9 C 71 % 995,5 hPa 0,0 mm 9,7 km/h (2 Bft) S-SW 202 0 min 1 UV-I 165 W/m 35,4 km/h (5 Bft)
14.11.2010 12:20 16,2 C 70 % 995,4 hPa 0,0 mm 8,0 km/h (2 Bft) S-SW 202 0 min 1 UV-I 183 W/m 25,7 km/h (4 Bft)
14.11.2010 12:30 16,3 C 70 % 995,4 hPa 0,0 mm 9,7 km/h (2 Bft) SW 225 10 min 1 UV-I 227 W/m 25,7 km/h (4 Bft)
14.11.2010 12:40 16,6 C 68 % 995,5 hPa 0,0 mm 6,4 km/h (2 Bft) SW 225 0 min 1 UV-I 172 W/m 22,5 km/h (4 Bft)
14.11.2010 12:50 16,7 C 68 % 995,6 hPa 0,0 mm 8,0 km/h (2 Bft) SW 225 0 min 1 UV-I 142 W/m 24,1 km/h (4 Bft)
14.11.2010 13:00 16,7 C 68 % 995,5 hPa 0,0 mm 8,0 km/h (2 Bft) SW 225 0 min 1 UV-I 88 W/m 22,5 km/h (4 Bft)
14.11.2010 13:10 16,7 C 68 % 995,5 hPa 0,0 mm 6,4 km/h (2 Bft) W-SW 247 0 min 1 UV-I 70 W/m 17,7 km/h (3 Bft)
14.11.2010 13:20 16,6 C 67 % 995,5 hPa 0,0 mm 3,2 km/h (1 Bft) SW 225 0 min 1 UV-I 70 W/m 16,1 km/h (3 Bft)
14.11.2010 13:30 16,4 C 68 % 995,4 hPa 0,0 mm 3,2 km/h (1 Bft) SW 225 0 min 0 UV-I 42 W/m 11,3 km/h (2 Bft)
14.11.2010 13:40 16,4 C 69 % 995,6 hPa 0,0 mm 3,2 km/h (1 Bft) S-SW 202 0 min 0 UV-I 30 W/m 11,3 km/h (2 Bft)
14.11.2010 13:50 16,3 C 69 % 995,6 hPa 0,0 mm 3,2 km/h (1 Bft) SW 225 0 min 0 UV-I 33 W/m 16,1 km/h (3 Bft)
14.11.2010 14:00 16,2 C 69 % 995,7 hPa 0,0 mm 1,6 km/h (1 Bft) SW 225 0 min 0 UV-I 46 W/m 9,7 km/h (2 Bft)
14.11.2010 14:10 16,1 C 68 % 995,9 hPa 0,0 mm 3,2 km/h (1 Bft) W-SW 247 0 min 0 UV-I 51 W/m 22,5 km/h (4 Bft)
14.11.2010 14:20 16,1 C 68 % 995,9 hPa 0,0 mm 6,4 km/h (2 Bft) SW 225 0 min 0 UV-I 54 W/m 24,1 km/h (4 Bft)
14.11.2010 14:30 16,2 C 68 % 996,1 hPa 0,0 mm 6,4 km/h (2 Bft) S-SW 202 0 min 0 UV-I 44 W/m 20,9 km/h (4 Bft)
14.11.2010 14:40 16,2 C 68 % 996,1 hPa 0,0 mm 8,0 km/h (2 Bft) SW 225 0 min 0 UV-I 70 W/m 24,1 km/h (4 Bft)
14.11.2010 14:50 16,2 C 68 % 996,2 hPa 0,0 mm 6,4 km/h (2 Bft) SW 225 0 min 0 UV-I 67 W/m 22,5 km/h (4 Bft)
14.11.2010 15:00 16,2 C 68 % 996,3 hPa 0,0 mm 6,4 km/h (2 Bft) SW 225 0 min 0 UV-I 42 W/m 16,1 km/h (3 Bft)
14.11.2010 15:10 16,2 C 68 % 996,3 hPa 0,0 mm 6,4 km/h (2 Bft) SW 225 0 min 0 UV-I 42 W/m 19,3 km/h (3 Bft)
14.11.2010 15:20 16,2 C 68 % 996,3 hPa 0,0 mm 4,8 km/h (1 Bft) S-SW 202 0 min 0 UV-I 37 W/m 22,5 km/h (4 Bft)
14.11.2010 15:30 16,2 C 67 % 996,5 hPa 0,0 mm 6,4 km/h (2 Bft) SW 225 0 min 0 UV-I 19 W/m 24,1 km/h (4 Bft)
14.11.2010 15:40 16,2 C 68 % 996,5 hPa 0,0 mm 4,8 km/h (1 Bft) S-SW 202 0 min 0 UV-I 19 W/m 20,9 km/h (4 Bft)
14.11.2010 15:50 16,2 C 69 % 996,5 hPa 0,0 mm 4,8 km/h (1 Bft) S-SW 202 0 min 0 UV-I 18 W/m 19,3 km/h (3 Bft)
14.11.2010 16:00 16,1 C 70 % 996,6 hPa 0,0 mm 3,2 km/h (1 Bft) SW 225 0 min 0 UV-I 11 W/m 17,7 km/h (3 Bft)
14.11.2010 16:10 15,9 C 70 % 996,9 hPa 0,0 mm 3,2 km/h (1 Bft) S-SW 202 0 min 0 UV-I 5 W/m 14,5 km/h (3 Bft)
14.11.2010 16:20 15,8 C 72 % 997,1 hPa 0,0 mm 4,8 km/h (1 Bft) SW 225 0 min 0 UV-I 0 W/m 19,3 km/h (3 Bft)
14.11.2010 16:30 15,7 C 73 % 997,2 hPa 0,3 mm 8,0 km/h (2 Bft) SW 225 0 min 0 UV-I 0 W/m 19,3 km/h (3 Bft)
14.11.2010 16:40 15,5 C 74 % 997,3 hPa 0,0 mm 4,8 km/h (1 Bft) S-SW 202 0 min 0 UV-I 0 W/m 16,1 km/h (3 Bft)
14.11.2010 16:50 15,4 C 74 % 997,3 hPa 0,0 mm 4,8 km/h (1 Bft) S-SW 202 0 min 0 UV-I 0 W/m 17,7 km/h (3 Bft)
14.11.2010 17:00 15,3 C 75 % 997,5 hPa 0,0 mm 1,6 km/h (1 Bft) SW 225 0 min 0 UV-I 0 W/m 9,7 km/h (2 Bft)
14.11.2010 17:10 15,1 C 75 % 997,6 hPa 0,0 mm 1,6 km/h (1 Bft) SW 225 0 min 0 UV-I 0 W/m 11,3 km/h (2 Bft)
14.11.2010 17:20 15,1 C 77 % 997,8 hPa 0,3 mm 1,6 km/h (1 Bft) SW 225 0 min 0 UV-I 0 W/m 8,0 km/h (2 Bft)
14.11.2010 17:30 15,0 C 78 % 998,2 hPa 0,0 mm 1,6 km/h (1 Bft) S-SW 202 0 min 0 UV-I 0 W/m 8,0 km/h (2 Bft)
14.11.2010 17:40 14,8 C 79 % 998,3 hPa 0,3 mm 1,6 km/h (1 Bft) SW 225 0 min 0 UV-I 0 W/m 6,4 km/h (2 Bft)
14.11.2010 17:50 14,6 C 81 % 998,6 hPa 0,0 mm 3,2 km/h (1 Bft) SW 225 0 min 0 UV-I 0 W/m 14,5 km/h (3 Bft)
14.11.2010 18:00 14,3 C 82 % 998,7 hPa 0,0 mm 3,2 km/h (1 Bft) SW 225 0 min 0 UV-I 0 W/m 11,3 km/h (2 Bft)
14.11.2010 18:10 14,1 C 83 % 998,8 hPa 0,0 mm 4,8 km/h (1 Bft) SW 225 0 min 0 UV-I 0 W/m 20,9 km/h (4 Bft)
14.11.2010 18:20 14,0 C 83 % 998,9 hPa 0,3 mm 3,2 km/h (1 Bft) S-SW 202 0 min 0 UV-I 0 W/m 11,3 km/h (2 Bft)
14.11.2010 18:30 13,9 C 84 % 999,2 hPa 0,0 mm 3,2 km/h (1 Bft) SW 225 0 min 0 UV-I 0 W/m 9,7 km/h (2 Bft)
14.11.2010 18:40 13,8 C 84 % 999,1 hPa 0,0 mm 3,2 km/h (1 Bft) S-SW 202 0 min 0 UV-I 0 W/m 11,3 km/h (2 Bft)
14.11.2010 18:50 13,8 C 84 % 999,1 hPa 0,0 mm 3,2 km/h (1 Bft) SW 225 0 min 0 UV-I 0 W/m 9,7 km/h (2 Bft)
14.11.2010 19:00 13,7 C 84 % 999,1 hPa 0,0 mm 4,8 km/h (1 Bft) S-SW 202 0 min 0 UV-I 0 W/m 17,7 km/h (3 Bft)
14.11.2010 19:10 13,6 C 84 % 999,2 hPa 0,0 mm 6,4 km/h (2 Bft) SW 225 0 min 0 UV-I 0 W/m 24,1 km/h (4 Bft)
14.11.2010 19:20 13,5 C 83 % 999,1 hPa 0,0 mm 6,4 km/h (2 Bft) S-SW 202 0 min 0 UV-I 0 W/m 19,3 km/h (3 Bft)
14.11.2010 19:30 13,6 C 82 % 999,3 hPa 0,0 mm 6,4 km/h (2 Bft) SW 225 0 min 0 UV-I 0 W/m 19,3 km/h (3 Bft)
14.11.2010 19:40 13,6 C 81 % 999,3 hPa 0,0 mm 4,8 km/h (1 Bft) SW 225 0 min 0 UV-I 0 W/m 16,1 km/h (3 Bft)
14.11.2010 19:50 13,6 C 81 % 999,3 hPa 0,0 mm 4,8 km/h (1 Bft) SW 225 0 min 0 UV-I 0 W/m 12,9 km/h (3 Bft)
14.11.2010 20:00 13,6 C 81 % 999,4 hPa 0,0 mm 3,2 km/h (1 Bft) S-SW 202 0 min 0 UV-I 0 W/m 11,3 km/h (2 Bft)
14.11.2010 20:10 13,5 C 81 % 999,6 hPa 0,0 mm 3,2 km/h (1 Bft) S-SW 202 0 min 0 UV-I 0 W/m 9,7 km/h (2 Bft)
14.11.2010 20:20 13,4 C 81 % 999,6 hPa 0,0 mm 3,2 km/h (1 Bft) S-SW 202 0 min 0 UV-I 0 W/m 16,1 km/h (3 Bft)
14.11.2010 20:30 13,3 C 81 % 999,7 hPa 0,0 mm 3,2 km/h (1 Bft) S-SW 202 0 min 0 UV-I 0 W/m 14,5 km/h (3 Bft)
14.11.2010 20:40 13,3 C 81 % 999,6 hPa 0,0 mm 3,2 km/h (1 Bft) S-SW 202 0 min 0 UV-I 0 W/m 14,5 km/h (3 Bft)
14.11.2010 20:50 13,2 C 80 % 999,9 hPa 0,0 mm 4,8 km/h (1 Bft) S-SW 202 0 min 0 UV-I 0 W/m 17,7 km/h (3 Bft)
14.11.2010 21:00 13,2 C 79 % 1000,1 hPa 0,0 mm 4,8 km/h (1 Bft) S-SW 202 0 min 0 UV-I 0 W/m 17,7 km/h (3 Bft)
14.11.2010 21:10 13,3 C 79 % 1000,0 hPa 0,0 mm 4,8 km/h (1 Bft) SW 225 0 min 0 UV-I 0 W/m 14,5 km/h (3 Bft)
14.11.2010 21:20 13,3 C 78 % 1000,3 hPa 0,0 mm 3,2 km/h (1 Bft) S-SW 202 0 min 0 UV-I 0 W/m 14,5 km/h (3 Bft)
14.11.2010 21:30 13,2 C 78 % 1000,4 hPa 0,0 mm 3,2 km/h (1 Bft) SW 225 0 min 0 UV-I 0 W/m 9,7 km/h (2 Bft)
14.11.2010 21:40 13,1 C 78 % 1000,4 hPa 0,0 mm 3,2 km/h (1 Bft) S-SW 202 0 min 0 UV-I 0 W/m 16,1 km/h (3 Bft)
14.11.2010 21:50 13,0 C 78 % 1000,5 hPa 0,0 mm 1,6 km/h (1 Bft) SW 225 0 min 0 UV-I 0 W/m 9,7 km/h (2 Bft)
14.11.2010 22:00 12,9 C 79 % 1000,8 hPa 0,0 mm 3,2 km/h (1 Bft) SW 225 0 min 0 UV-I 0 W/m 11,3 km/h (2 Bft)
14.11.2010 22:10 12,8 C 79 % 1000,7 hPa 0,0 mm 3,2 km/h (1 Bft) S-SW 202 0 min 0 UV-I 0 W/m 17,7 km/h (3 Bft)
14.11.2010 22:20 12,8 C 79 % 1001,3 hPa 0,0 mm 3,2 km/h (1 Bft) S-SW 202 0 min 0 UV-I 0 W/m 12,9 km/h (3 Bft)
14.11.2010 22:30 12,8 C 79 % 1001,3 hPa 0,0 mm 3,2 km/h (1 Bft) SW 225 0 min 0 UV-I 0 W/m 9,7 km/h (2 Bft)
14.11.2010 22:40 12,8 C 79 % 1001,4 hPa 0,0 mm 3,2 km/h (1 Bft) S-SW 202 0 min 0 UV-I 0 W/m 16,1 km/h (3 Bft)
14.11.2010 22:50 12,8 C 79 % 1001,5 hPa 0,0 mm 4,8 km/h (1 Bft) S-SW 202 0 min 0 UV-I 0 W/m 16,1 km/h (3 Bft)
14.11.2010 23:00 12,8 C 78 % 1001,5 hPa 0,0 mm 6,4 km/h (2 Bft) S-SW 202 0 min 0 UV-I 0 W/m 16,1 km/h (3 Bft)
14.11.2010 23:10 12,9 C 78 % 1001,7 hPa 0,0 mm 6,4 km/h (2 Bft) SW 225 0 min 0 UV-I 0 W/m 22,5 km/h (4 Bft)
14.11.2010 23:20 13,1 C 77 % 1002,0 hPa 0,0 mm 6,4 km/h (2 Bft) SW 225 0 min 0 UV-I 0 W/m 20,9 km/h (4 Bft)
14.11.2010 23:30 13,2 C 77 % 1002,1 hPa 0,0 mm 6,4 km/h (2 Bft) SW 225 0 min 0 UV-I 0 W/m 19,3 km/h (3 Bft)
14.11.2010 23:40 13,2 C 76 % 1002,4 hPa 0,0 mm 6,4 km/h (2 Bft) SW 225 0 min 0 UV-I 0 W/m 19,3 km/h (3 Bft)
14.11.2010 23:50 13,2 C 76 % 1002,6 hPa 0,0 mm 4,8 km/h (1 Bft) SW 225 0 min 0 UV-I 0 W/m 20,9 km/h (4 Bft)
_ Min-Zeit 00:10 13:20 07:20 - 00:00 - - - - - 01:20
Minimum _ 10,5 C 67 % 995,2 hPa - 0,0 km/h (0 Bft) - - - - - 0,0 km/h (0 Bft)
_ Max-Zeit 12:50 04:10 23:50 00:40 12:10 - - 12:30 12:30 12:30 12:10
Maximum _ 16,7 C 95 % 1002,6 hPa 0,3 mm 9,7 km/h
S-SW (2 Bft)
- - 10 min 1 UV-I 227 W/m 35,4 km/h
S-SW (5 Bft)
Durchschnitt _ 13,4 C 83 % 997,2 hPa #3,0 mm 3,3 km/h (1 Bft) S-SW - #10 min. 1 UV-I 70 W/m 13,3 km/h (3 Bft)